NIGERIAEDUSAT-1 (42824 NORAD) Tracking and Keplerian Element Data

This shows tracking and keplerian element data for the satellite.

Feedback or suggestion? Click here.




ElementValue
Catalog42824
NameNIGERIAEDUSAT-1
Epoch Orbit10597
Epoch Day133.12526632
Epoch Year2019
RAAN92.5367
Inclination51.6091
Eccentricity0.0003545
Argument of Perigee299.4874
Mean Anonmoly174.6355
Mean Motion16.43636834
Decay Rate0.12220275
L11 42824U 98067MY 19133.12526632 .12220275 12529-4 51637-3 0 9993
L22 42824 51.6091 92.5367 0003545 299.4874 174.6355 16.43636834105973



Live tracking and technical data element details for NIGERIAEDUSAT-1 (NORAD 42824). NIGERIAEDUSAT-1 can be tracked NOW for your location showing map with azimuth and elevation plus other details from your city location.







IsCatalogInMostPopularTable: catalog: 42824, numindb: 452
Update: records affected: 1



GetName: 42824 NIGERIAEDUSAT-1

Hit Count: updated at: Mon, 28 Nov 2022 04:39:39 GMT